O3B FM12

Last updated on Fri Dec 29 2023 00:03:04 GMT+0000 (Coordinated Universal Time)

1 40350U 14083C 23361.49361041 -.00000024 00000+0 00000+0 0 9996 2 40350 0.0466 8.7002 0002594 264.5300 86.7384 5.00115495164767
UTC large
Height (km)
Speed (km/s)
/
Latitude / Longitude
Inclination (degrees)
Orbital Period (minutes)
Azimuth
Elevation
Range (km)
Doppler Factor

Next 0 passes for location: London (51.5072 / 0.1276)

Sorry there are no passes over London.